Location: Greenwich
(51.4790°N, 0.0090°E)
Time: 08:00:03
(UTC+01:00)

Explorer 7 - Pass Details

Date: 17 April 2024
Orbit: 467 x 625 km, 50.3° (Epoch: 24 May)

Event Time Altitude Azimuth Distance (km) Brightness Sun altitude
Rises 13:00:21 0° 213° (SSW) 2,902 11.0 49.3°
Reaches altitude 10° 13:02:56 10° 201° (SSW) 2,003 10.5 49.3°
Maximum altitude 13:06:46 26° 145° (SE) 1,244 9.6 49.2°
Drops below altitude 10° 13:10:34 10° 89° (E) 1,994 9.8 49.2°
Sets 13:13:08 0° 77° (ENE) 2,887 10.4 49.2°
